Location: Newark
(45.2500°N, 7.5833°E)
Time: 15:19:40
(UTC+00:00)

Tiros 1 despin weight - Pass Details

Date: 29 January 2020
Orbit: 594 x 642 km, 48.2° (Epoch: 27 February)

Event Time Altitude Azimuth Distance (km) Brightness Sun altitude
Rises 15:48:42 0° 285° (WNW) 2,909 ? 5.8°
Reaches altitude 10° 15:51:30 10° 269° (W) 2,007 ? 5.4°
Maximum altitude 15:54:52 20° 222° (SW) 1,458 ? 4.9°
Drops below altitude 10° 15:58:15 10° 175° (S) 2,015 ? 4.4°
Sets 16:01:04 0° 159° (SSE) 2,925 ? 3.9°
